This is the latest recevied weather packets stored in our database for station/object SM6LNJ-13. If no packets are shown the sender has not sent any weather packets the latest 10 day(s).
| Time | Temp. | Humidity | Pressure | Rain* | Wind** | Luminosity | Snow |
|---|---|---|---|---|---|---|---|
| 1777469873 | 16.67° C | 65% | 1434.3 hPa | 0 mm | - | - | - |
| 1777469633 | 15° C | 65% | 1431.6 hPa | 0 mm | - | - | - |
| 1777469273 | 15° C | 65% | 1431.3 hPa | 0 mm | - | - | - |
| 1777469153 | 15° C | 64% | 1431.5 hPa | 0 mm | - | - | - |
| 1777469033 | 15.56° C | 64% | 1432.5 hPa | 0 mm | - | - | - |
| 1777468913 | 16.11° C | 64% | 1433.7 hPa | 0 mm | - | - | - |
| 1777468673 | 16.11° C | 64% | 1433.7 hPa | 0 mm | - | - | - |
| 1777468553 | 16.11° C | 64% | 1433.1 hPa | 0 mm | - | - | - |
| 1777468433 | 16.11° C | 63% | 1433.6 hPa | 0 mm | - | - | - |
| 1777468313 | 16.11° C | 64% | 1434 hPa | 0 mm | - | - | - |
| 1777468193 | 16.11° C | 64% | 1433.8 hPa | 0 mm | - | - | - |
| 1777468073 | 16.11° C | 64% | 1433.7 hPa | 0 mm | - | - | - |
| 1777467953 | 16.11° C | 64% | 1433.3 hPa | 0 mm | - | - | - |
| 1777467713 | 15.56° C | 64% | 1432.9 hPa | 0 mm | - | - | - |
| 1777467593 | 16.11° C | 64% | 1433.2 hPa | 0 mm | - | - | - |
| 1777467473 | 15.56° C | 64% | 1432.5 hPa | 0 mm | - | - | - |
| 1777467353 | 15.56° C | 63% | 1432.2 hPa | 0 mm | - | - | - |
| 1777467112 | 15.56° C | 62% | 1432.6 hPa | 0 mm | - | - | - |
| 1777466873 | 16.67° C | 61% | 1434.7 hPa | 0 mm | - | - | - |
| 1777466753 | 16.67° C | 61% | 1434.9 hPa | 0 mm | - | - | - |
| 1777466633 | 16.67° C | 61% | 1435.4 hPa | 0 mm | - | - | - |
| 1777466153 | 16.67° C | 62% | 1434.8 hPa | 0 mm | - | - | - |
| 1777464953 | 15° C | 65% | 1431.1 hPa | 0 mm | - | - | - |
| 1777464473 | 15° C | 67% | 1431.3 hPa | 0 mm | - | - | - |
| 1777464353 | 15° C | 67% | 1430.8 hPa | 0 mm | - | - | - |
* Rain latest hour (hover to see other rain measurements)
** Current wind speed in m/s (hover to see current wind gust speed)